Weather History for KDLN - September, 2014

Change the Weather History Date:

Monday, September 1, 2014

  Actual Average Record
Temperature  
Mean Temperature 57 °F 60 °F  
Max Temperature 71 °F 77 °F 92 °F (1967)
Min Temperature 42 °F 44 °F 32 °F (2006)
Degree Days  
Heating Degree Days 8    
Month to date heating degree days 8  
Since 1 July heating degree days 100  
Cooling Degree Days 0    
Month to date cooling degree days 0  
Year to date cooling degree days 164  
Growing Degree Days 6 (Base 50)    
Moisture  
Dew Point 37 °F    
Average Humidity 54    
Maximum Humidity 83    
Minimum Humidity 24    
Precipitation  
Precipitation 0.00 in 0.03 in 0.24 in (1961)
Month to date precipitation 0.00 0.03  
Year to date precipitation 8.87 8.33  
Snow  
Snow 0.00 in - - ()
Snow Depth 0.00 in    
Sea Level Pressure  
Sea Level Pressure 29.94 in    
Wind  
Wind Speed 7 mph (SSW)    
Max Wind Speed 18 mph    
Max Gust Speed 23 mph    
Visibility 10 miles    
Events      
T = Trace of Precipitation, MM = Missing Value Source: NWS Daily Summary

Daily Weather History Graph

Daily Weather History Graph

Search for Another Location

Airport or City:

Trip Planner

Search our weather history database for the weather conditions in past years. The results will help you decide how hot, cold, wet, or windy it might be!

Date:

Astronomy

Sep. 01, 2014 Rise Set
Actual Time 6:52 AM MDT 8:07 PM MDT
Civil Twilight 6:21 AM MDT 8:37 PM MDT
Nautical Twilight 5:44 AM MDT 9:14 PM MDT
Astronomical Twilight 5:05 AM MDT 9:53 PM MDT
Moon 2:00 PM MDT (9/1) 11:52 PM MDT (9/1)
Length of Visible Light 14h 16m
Length of Day
13h 15m
Waxing Crescent, 43% of the Moon is Illuminated
Sep 1
Waxing Crescent
Sep 2
First Quarter
Sep 8
Full
Sep 15
Last Quarter
Sep 24
New

Hourly Weather History & Observations

Time (MDT) Temp. Windchill Dew Point Humidity Pressure Visibility Wind Dir Wind Speed Gust Speed Precip Events Conditions
12:53 AM 52.0 °F - 39.0 °F 61% 29.91 in 10.0 mi NNW 3.5 mph - N/A   Overcast
1:53 AM 51.1 °F - 39.0 °F 63% 29.91 in 10.0 mi Calm Calm - N/A   Overcast
2:53 AM 51.1 °F - 37.9 °F 61% 29.92 in 10.0 mi Calm Calm - N/A   Overcast
3:53 AM 46.9 °F - 39.9 °F 77% 29.93 in 10.0 mi SE 5.8 mph - N/A   Mostly Cloudy
4:53 AM 44.1 °F 38.6 °F 39.9 °F 85% 29.94 in 10.0 mi ESE 10.4 mph - N/A   Mostly Cloudy
5:53 AM 45.0 °F 41.8 °F 37.9 °F 76% 29.96 in 10.0 mi South 5.8 mph - N/A   Partly Cloudy
6:53 AM 42.1 °F 38.4 °F 37.9 °F 85% 29.97 in 10.0 mi SSE 5.8 mph - N/A   Partly Cloudy
7:53 AM 45.0 °F 41.8 °F 37.9 °F 76% 29.99 in 10.0 mi South 5.8 mph - N/A   Clear
9:53 AM 53.1 °F - 37.9 °F 57% 29.99 in 10.0 mi Variable 5.8 mph - N/A   Clear
10:53 AM 59.0 °F - 36.0 °F 42% 29.97 in 10.0 mi West 12.7 mph 18.4 mph N/A   Clear
11:53 AM 61.0 °F - 36.0 °F 39% 29.98 in 10.0 mi SSW 15.0 mph - N/A   Clear
12:53 PM 63.0 °F - 35.1 °F 35% 29.96 in 10.0 mi SSW 13.8 mph 20.7 mph N/A   Clear
1:53 PM 64.9 °F - 35.1 °F 33% 29.94 in 10.0 mi South 9.2 mph - N/A   Clear
2:53 PM 68.0 °F - 35.1 °F 30% 29.91 in 10.0 mi South 11.5 mph - N/A   Clear
3:53 PM 70.0 °F - 33.1 °F 26% 29.91 in 10.0 mi WSW 11.5 mph - N/A   Clear
4:53 PM 71.1 °F - 32.0 °F 24% 29.91 in 10.0 mi West 9.2 mph - N/A   Partly Cloudy
5:53 PM 70.0 °F - 33.1 °F 26% 29.91 in 10.0 mi West 12.7 mph - N/A   Clear
6:53 PM 68.0 °F - 34.0 °F 28% 29.92 in 10.0 mi West 9.2 mph - N/A   Clear
7:53 PM 61.0 °F - 37.0 °F 41% 29.92 in 10.0 mi West 6.9 mph - N/A   Clear
8:53 PM 55.9 °F - 39.0 °F 53% 29.94 in 10.0 mi SSE 5.8 mph - N/A   Clear
9:53 PM 57.0 °F - 37.9 °F 49% 29.92 in 10.0 mi South 8.1 mph - N/A   Clear
10:53 PM 51.1 °F - 39.0 °F 63% 29.93 in 10.0 mi Calm Calm - N/A   Clear
11:53 PM 50.0 °F - 39.0 °F 66% 29.93 in 10.0 mi South 4.6 mph - N/A   Clear